Location: *
(51.0333°S, 178.4667°E)
Time: 12:54:03
(UTC+00:00)

Cosmos 407 Rocket - Pass Details

Date: 15 November 2019
Orbit: 743 x 787 km, 74.0° (Epoch: 07 December)

Event Time Altitude Azimuth Distance (km) Brightness Sun altitude
Rises 09:31:55 0° 209° (SSW) 3,279 8.7 -14.1°
Reaches altitude 10° 09:34:25 10° 215° (SW) 2,338 7.5 -14.4°
Maximum altitude 09:39:25 44° 285° (WNW) 1,061 4.3 -14.8°
Enters shadow 09:43:22 15° 351° (N) 1,944 5.2 -15.1°
